Wind_Speed
6 6 4 1 1 2 3 3 2 7 7 2 9 3 3 3 2 4 9 7 17 16 13 12 14 11 8 8 10 10 10 10 12 13 12 11 11 12 11 13 13 14 14 15 15 15 15 15 15
8 6 1 0 2 4 3 4 5 4 7 13 7 8 3 4 4 10 11 15 17 15 13 13 13 10 7 7 8 7 9 9 10 11 12 11 11 12 12 13 14 14 14 14 14 15 15 14 14
9 3 2 1 3 4 4 6 10 11 11 8 4 6 2 4 9 13 11 19 16 14 12 12 11 9 8 8 8 7 9 8 9 10 13 11 12 12 13 12 13 13 14 13 13 13 13 13 13
6 3 2 3 9 4 4 8 9 11 9 5 9 8 5 6 6 6 18 18 16 13 12 12 10 9 9 9 8 8 8 9 9 10 11 11 10 11 13 13 12 12 13 13 12 13 12 12 11
3 1 2 4 6 5 5 5 4 5 5 7 4 7 7 5 8 17 18 16 15 13 12 10 10 10 8 7 9 7 7 8 9 12 11 11 10 11 11 12 11 11 11 10 13 11 10 9 8
2 1 3 4 4 4 5 4 5 9 7 10 11 10 4 5 13 14 14 14 12 13 11 9 10 10 8 7 7 8 9 8 10 10 11 11 9 9 11 10 9 10 10 10 10 8 8 7 7
2 2 3 3 4 3 5 5 5 7 10 8 5 6 4 8 13 14 13 12 11 10 9 9 9 9 8 7 9 7 7 8 8 9 8 9 9 10 9 8 8 8 8 7 7 6 7 8 10
1 1 3 2 3 3 6 3 8 12 6 8 2 4 6 10 14 14 12 11 10 9 8 8 9 9 8 6 8 6 6 7 7 7 9 8 7 8 7 9 7 8 7 6 6 6 6 7 8
1 1 2 2 4 6 10 6 5 4 11 4 5 5 11 20 16 15 13 11 10 8 8 8 9 8 8 7 5 5 6 6 5 6 7 6 6 5 5 6 6 5 6 4 4 5 6 5 5
2 2 3 1 4 8 11 10 9 5 11 5 9 14 18 18 16 14 13 13 12 11 10 9 8 7 8 6 6 5 5 5 5 5 5 4 4 3 3 3 3 3 3 4 3 4 5 4 4
1 3 3 5 4 16 13 11 4 13 6 6 10 13 16 16 13 12 11 10 10 10 9 9 8 7 8 8 7 6 5 5 5 5 4 4 3 2 1 1 2 3 2 2 3 3 3 4 3
2 3 1 3 8 11 12 12 7 8 1 9 15 18 16 13 12 11 10 10 11 11 10 9 9 8 9 8 7 6 5 5 5 5 6 4 2 1 1 1 2 1 1 2 2 2 2 3 3
1 4 4 4 8 10 12 8 4 6 6 12 17 16 14 13 12 10 9 9 10 12 11 12 11 11 10 10 7 6 6 6 5 5 6 4 3 1 2 3 2 2 1 1 2 2 3 5 5
3 8 4 3 9 8 8 5 5 8 12 15 16 15 14 15 15 11 11 11 12 11 13 13 13 13 12 11 10 8 7 6 7 7 6 6 5 4 3 4 4 3 3 3 5 6 8 10 11
5 5 3 4 3 3 8 6 5 11 14 15 14 13 13 15 15 17 15 15 14 14 13 15 14 14 14 13 11 10 9 8 8 8 8 8 7 6 6 5 5 5 6 8 9 10 11 11 13
2 2 2 3 5 3 3 3 4 15 16 15 13 12 12 14 20 18 17 17 16 14 15 15 14 14 14 12 11 9 9 9 9 9 9 10 9 8 9 8 7 6 9 10 12 13 15 14 12
1 2 4 3 8 5 5 2 3 13 14 14 14 14 13 13 18 20 20 19 18 18 16 17 17 15 15 15 13 12 11 12 10 11 11 13 12 11 11 10 11 11 11 10 10 11 11 12 11
4 5 4 4 7 6 6 7 5 12 14 13 13 13 13 14 18 21 21 20 20 19 20 19 19 20 19 15 15 12 12 12 14 13 13 13 13 12 12 12 13 13 12 12 11 12 12 12 11
8 7 6 2 5 7 9 6 6 12 12 13 14 15 15 17 18 20 21 22 21 20 21 24 23 23 21 18 15 14 14 13 13 14 16 14 14 14 14 14 15 14 13 15 14 10 12 10 9
7 4 4 2 3 6 2 9 9 13 16 17 16 16 18 17 13 15 18 20 24 24 24 23 26 25 26 18 15 12 11 11 11 11 14 16 15 15 15 17 15 15 15 16 14 12 10 9 9
5 4 5 3 6 1 1 6 6 8 12 14 17 15 16 16 16 14 16 21 22 22 24 27 30 29 27 24 19 18 16 15 13 12 12 14 16 15 17 17 18 17 16 13 14 15 13 11 8
3 6 9 12 8 3 2 3 4 6 10 14 16 17 17 17 16 14 17 18 21 24 22 24 27 28 27 25 20 20 17 15 14 13 12 13 15 15 15 16 18 19 14 15 14 12 12 11 13
3 2 7 6 4 2 4 4 2 1 10 16 17 19 19 18 17 18 21 22 23 21 24 25 25 26 27 26 24 20 19 16 14 12 16 18 17 17 16 16 18 19 17 16 17 16 14 13 14
12 6 6 4 1 4 2 6 4 4 5 6 13 18 19 18 17 17 20 18 19 20 21 21 23 28 26 26 25 26 22 18 13 11 12 14 13 12 15 17 19 21 21 22 20 20 19 20 18
3 2 2 3 4 2 3 4 9 3 5 6 7 9 14 17 14 14 13 17 19 22 21 19 19 22 24 25 26 27 27 23 21 18 15 14 14 15 16 19 19 18 20 23 24 23 21 20 22
5 6 5 4 3 2 3 5 2 2 7 7 8 7 7 10 11 15 14 18 19 20 21 19 19 21 22 27 32 31 30 28 30 24 17 16 14 15 19 22 23 22 21 20 21 22 23 18 17
6 5 1 5 1 3 1 5 9 2 0 3 6 5 5 6 4 8 12 16 16 18 21 23 20 22 25 28 31 30 29 30 20 20 19 19 19 18 22 22 23 22 23 21 20 21 22 21 20
3 9 4 1 4 4 3 4 5 6 7 7 8 7 3 3 2 6 10 13 15 18 21 22 25 26 27 21 20 22 25 23 20 18 19 18 16 16 18 21 22 22 21 21 20 24 24 20 20
5 5 3 2 1 3 2 4 6 9 11 13 9 8 6 4 1 3 6 7 12 17 23 25 27 33 32 8 13 16 21 23 19 20 18 19 14 14 15 17 17 19 20 20 20 22 19 15 13
2 5 9 7 6 1 2 5 2 6 11 9 11 10 6 3 4 3 5 7 13 17 20 23 25 24 21 14 12 17 17 19 26 20 17 14 13 10 13 14 14 16 17 17 18 19 14 14 8
Wind_Direction
172 181 180 249 192 81 63 29 2 122 133 109 136 191 110 50 25 78 134 152 148 148 150 146 146 139 133 117 120 107 117 125 126 133 131 128 132 131 123 118 117 111 112 108 107 108 108 106 107
166 159 126 53 65 80 45 7 113 136 123 128 111 116 86 86 64 115 131 148 150 149 147 147 152 150 144 130 127 113 119 122 131 133 126 121 124 127 123 118 113 114 113 109 109 111 113 114 110
169 171 247 74 74 71 94 92 100 103 136 133 115 59 58 54 103 136 143 148 150 147 146 150 150 153 152 133 125 128 120 129 131 127 115 116 117 123 127 119 117 120 116 113 110 109 112 111 111
180 208 209 69 76 60 94 128 106 120 120 88 117 74 79 86 122 139 144 149 148 142 144 158 150 147 140 131 124 115 120 126 129 117 115 117 115 117 116 121 124 115 112 113 114 115 116 117 124
259 236 48 87 77 92 92 133 115 104 94 103 121 102 94 30 114 135 145 151 148 141 145 154 149 145 134 120 124 126 119 112 124 120 125 120 127 126 123 120 120 114 119 118 119 115 118 121 125
214 233 67 68 68 93 106 125 83 85 92 104 98 105 85 105 130 142 148 147 145 145 150 155 154 152 141 130 118 117 128 111 112 108 116 122 119 113 112 115 121 120 125 124 124 116 114 99 118
308 71 73 94 77 89 116 111 101 97 120 85 106 97 99 130 142 144 147 144 145 149 153 156 158 163 159 140 118 110 116 118 99 104 124 119 117 117 117 126 119 115 118 128 117 107 93 88 105
21 76 117 116 105 88 129 94 116 120 83 121 95 128 146 150 145 143 143 147 150 153 165 167 163 169 161 147 134 122 117 113 117 115 119 126 126 119 117 110 115 118 121 118 136 129 98 90 101
225 124 122 142 158 130 148 124 138 95 137 76 43 111 122 142 145 146 148 154 156 162 167 175 180 179 177 166 153 132 116 123 121 124 133 132 131 118 119 122 113 125 120 147 154 136 108 106 102
28 50 6 24 149 148 153 145 142 138 152 86 76 100 129 145 155 158 168 169 172 174 180 183 185 186 191 185 169 160 135 151 138 134 150 126 140 110 122 119 124 128 142 161 169 139 149 125 91
109 51 338 33 155 144 144 140 118 135 175 161 160 148 152 156 166 170 175 180 182 182 187 194 193 196 197 195 181 179 178 168 162 163 153 154 150 121 140 186 170 165 161 161 190 160 180 174 160
33 56 50 99 139 147 145 142 129 152 199 164 161 159 158 170 181 185 186 185 188 193 198 197 196 196 191 192 189 192 189 189 180 181 187 178 173 228 189 198 196 189 205 206 208 185 178 180 204
20 55 51 121 140 135 139 143 132 154 94 140 145 159 166 179 190 197 197 196 197 201 204 204 200 197 193 193 197 198 198 203 199 193 197 196 211 243 237 232 231 206 235 253 263 273 267 266 284
99 88 48 109 125 131 134 143 149 156 135 141 157 170 180 188 193 196 204 206 208 207 208 206 206 204 201 205 210 214 217 213 211 212 217 236 247 272 259 236 234 239 255 263 284 286 298 304 307
135 100 78 98 122 110 133 148 188 162 160 157 174 181 190 200 198 206 206 210 208 208 205 209 208 207 209 214 218 220 221 222 219 225 237 248 260 270 258 255 255 265 281 277 274 281 280 293 297
133 104 207 140 157 157 225 29 146 163 164 172 179 189 199 206 212 213 212 212 210 207 207 204 205 206 206 211 214 219 220 221 226 232 243 253 265 271 268 262 269 278 288 288 289 289 284 284 285
135 257 219 196 197 155 217 15 108 172 180 176 187 195 204 213 219 220 218 216 213 212 209 209 206 208 206 209 213 218 225 231 236 243 250 255 260 265 269 263 268 281 277 281 282 289 288 283 286
296 230 210 224 188 191 189 235 140 181 189 194 196 203 212 218 224 221 223 223 220 215 214 214 211 211 214 213 216 222 228 236 243 244 248 255 255 262 265 268 271 275 269 268 270 277 280 272 280
282 245 245 248 183 197 218 237 193 190 200 207 209 213 217 220 228 227 223 220 219 221 217 217 216 218 213 212 213 222 227 234 245 247 251 251 256 260 269 268 270 275 272 282 283 270 271 280 274
228 222 211 110 183 216 222 245 220 196 208 210 213 218 224 230 223 218 219 220 219 220 216 215 221 222 223 219 220 220 223 238 245 258 251 243 252 255 263 267 269 277 275 280 274 266 264 267 272
193 224 169 141 145 161 265 261 209 219 219 213 224 225 229 227 226 217 211 209 213 217 218 215 220 223 226 226 229 235 240 243 247 252 251 252 252 257 263 267 271 280 284 279 280 280 280 284 279
12 216 151 143 165 221 281 290 257 208 215 218 221 222 229 228 227 228 219 211 209 215 213 216 220 222 225 228 227 226 228 235 245 255 258 264 266 267 264 268 270 277 271 270 278 278 275 264 271
35 84 122 148 123 205 193 260 236 268 223 224 218 222 227 226 224 224 222 222 218 210 211 211 217 220 220 224 227 224 228 240 248 254 257 261 265 269 269 271 273 270 267 268 274 268 266 258 260
153 93 73 83 202 249 179 239 266 202 240 247 210 224 227 229 224 228 222 218 217 209 207 208 211 221 222 224 226 225 226 234 241 248 255 262 266 267 270 277 280 275 270 269 271 274 267 265 261
162 156 218 202 193 260 47 219 256 239 269 270 249 227 227 232 229 226 212 199 203 200 200 203 208 214 218 223 224 232 235 235 235 242 248 253 268 268 269 281 287 283 282 275 269 269 269 272 271
191 237 251 269 216 120 121 230 239 297 293 273 238 226 234 235 222 233 227 208 199 189 194 196 203 210 223 227 231 235 235 237 241 236 239 249 254 270 280 281 283 285 285 284 275 266 270 273 273
149 197 87 119 57 264 208 264 268 174 127 159 172 176 214 242 236 245 240 225 212 188 194 193 192 203 231 232 233 233 235 244 251 252 250 261 267 270 277 278 278 281 282 281 277 272 277 276 278
243 137 181 229 196 228 203 271 240 178 175 161 157 161 191 243 246 248 239 233 213 203 194 190 200 205 221 218 222 226 238 242 243 256 258 267 278 290 281 275 277 277 277 276 273 276 283 286 278
152 190 80 127 266 218 216 244 203 203 184 167 165 158 162 139 136 272 277 221 189 184 186 189 196 205 215 210 216 222 236 237 239 250 262 269 278 288 282 276 280 280 275 271 270 277 283 292 289
219 215 182 216 181 199 313 263 199 239 180 179 160 157 154 102 86 81 120 141 168 177 184 190 200 213 220 227 235 239 231 241 244 256 267 265 286 294 280 267 280 278 277 268 266 273 271 273 284
Height
809 809 809 809 818 810 823 819 806 813 814 806 809 815 820 821 824 836 832 833 835 838 841 843 845 846 847 848 849 850 849 851 851 852 852 853 853 853 854 855 856 857 858 858 858 859 859 860 861
809 811 811 810 817 826 829 812 815 809 807 805 810 814 820 828 825 830 833 835 837 840 843 845 846 848 848 849 850 851 852 852 853 854 854 855 855 856 857 857 858 860 860 860 861 862 862 863 864
810 811 811 811 820 829 829 815 812 809 806 806 814 813 819 828 830 832 834 836 839 841 844 846 847 849 849 851 852 853 853 854 855 855 856 856 856 858 859 860 861 861 862 863 864 865 866 866 868
810 811 810 816 823 819 816 813 809 810 808 806 810 821 823 828 831 833 835 838 840 843 845 846 848 849 852 853 854 855 856 856 856 858 859 859 860 861 861 863 863 863 865 866 866 867 868 868 869
809 808 813 817 820 814 810 807 807 812 812 811 810 826 830 832 832 835 837 840 842 844 847 848 850 852 854 854 855 857 858 859 859 859 860 861 862 864 865 865 866 867 867 868 869 870 869 870 871
807 807 819 826 821 815 810 807 808 812 813 815 819 823 833 836 835 837 840 842 844 846 848 850 851 853 855 857 857 858 859 860 860 862 862 863 864 866 867 868 869 869 870 871 872 872 872 871 872
805 808 821 822 823 820 815 805 811 814 816 820 818 829 834 836 838 839 842 844 846 847 849 852 854 855 856 857 858 859 860 861 862 864 864 866 867 868 869 870 871 872 873 874 875 875 874 875 874
801 805 818 818 823 824 811 809 809 812 821 816 816 830 834 835 839 840 843 845 847 849 850 852 854 856 857 859 859 861 861 862 864 866 867 868 868 869 871 871 872 874 875 876 876 877 876 876 877
799 809 819 815 817 817 807 815 811 810 815 816 820 821 827 835 839 841 844 846 848 850 852 853 855 857 857 859 861 861 862 864 866 867 868 869 871 872 873 874 875 875 876 877 877 878 878 879 878
802 814 813 800 799 808 807 810 813 818 819 824 825 829 832 836 839 841 842 845 848 850 853 855 856 858 859 860 862 863 865 867 868 869 870 871 872 873 875 875 876 877 877 878 878 879 879 880 880
803 812 803 798 795 798 807 811 809 818 827 822 826 830 833 836 839 841 844 846 848 850 852 854 856 858 860 861 863 865 867 868 869 870 871 872 873 875 876 876 877 878 879 880 879 880 880 881 882
803 798 797 796 796 801 807 807 815 815 816 814 820 826 832 835 838 839 843 845 848 850 852 854 856 858 860 862 864 866 868 869 871 871 871 873 874 875 876 877 877 879 880 880 880 881 881 879 880
799 799 797 795 796 799 802 811 814 816 814 815 823 828 831 835 838 840 842 845 847 849 851 853 856 858 860 861 864 866 868 869 871 871 872 874 875 876 877 877 878 879 880 881 880 880 881 879 879
795 797 801 799 799 801 809 813 811 817 816 820 824 827 830 833 836 839 841 843 846 848 850 852 854 857 860 862 863 865 867 869 870 872 873 872 875 876 876 877 878 878 879 879 879 879 878 878 879
794 805 803 804 803 807 803 821 818 812 816 821 824 827 830 832 836 837 839 841 844 846 849 851 853 856 859 862 863 865 866 869 870 872 873 874 874 875 876 876 877 878 878 878 878 878 877 878 877
804 805 821 808 806 808 807 823 812 812 815 821 824 827 830 831 832 835 837 839 842 845 847 849 852 854 857 860 862 864 866 868 869 871 872 873 873 874 875 875 876 877 876 876 875 875 875 875 875
811 824 823 817 802 808 810 819 813 811 814 819 821 822 825 827 830 832 835 837 840 843 846 848 850 853 855 857 860 862 865 866 868 869 870 870 872 872 873 873 874 874 875 875 873 872 871 872 871
821 823 818 816 807 809 816 812 811 812 814 818 819 820 822 824 824 828 832 835 837 840 843 845 848 851 853 856 858 860 861 863 864 866 866 867 869 870 870 871 871 871 872 872 871 870 869 868 870
805 813 815 809 803 808 812 812 807 807 814 816 816 817 817 818 819 823 826 829 833 837 840 841 844 847 850 852 855 857 858 860 861 862 863 865 866 867 868 868 867 868 869 869 868 868 867 867 867
809 812 815 811 805 808 814 811 805 804 806 807 809 811 812 813 817 820 822 825 827 830 833 837 840 844 847 851 853 855 856 857 858 859 860 861 862 863 864 865 865 865 866 866 864 866 866 866 865
806 806 812 809 812 808 812 811 808 800 800 802 801 803 804 807 810 813 817 818 822 825 828 830 834 839 844 847 850 852 853 854 855 855 857 858 859 860 861 862 862 863 863 863 863 863 863 863 863
800 795 798 810 812 827 813 831 808 800 802 802 797 799 798 800 804 806 810 814 817 819 823 827 830 834 839 843 847 849 851 852 853 855 855 855 857 858 858 859 859 859 860 860 860 859 859 860 860
806 796 800 810 818 821 824 826 802 804 802 795 792 789 788 789 795 798 803 807 811 816 818 820 825 831 835 838 842 846 848 850 851 852 852 852 853 855 856 856 855 855 855 855 855 855 855 856 856
796 804 812 817 819 833 820 821 802 797 789 780 781 782 781 782 787 792 797 802 806 811 814 819 823 827 833 836 839 840 842 846 848 848 849 850 850 850 851 851 851 850 850 850 850 849 848 849 851
793 805 829 838 837 834 829 834 797 788 782 781 778 778 777 778 783 786 792 796 800 804 810 816 820 823 827 832 834 837 840 841 840 841 843 844 847 847 847 847 846 845 845 844 844 844 843 844 845
795 798 821 849 840 831 836 829 793 781 776 774 774 770 772 774 778 779 784 790 795 801 806 811 814 819 823 824 826 830 832 835 835 833 838 840 840 841 842 842 841 840 840 839 839 839 839 838 839
804 810 799 824 844 833 820 805 781 779 778 776 772 772 772 773 777 780 782 786 792 797 801 805 810 811 813 815 821 824 828 832 836 837 834 835 835 835 835 836 836 835 835 835 834 835 834 833 833
788 791 812 816 843 845 824 821 796 786 782 777 775 772 773 774 778 778 779 781 787 792 797 801 804 805 799 806 815 820 824 827 830 833 831 830 830 829 829 830 830 830 830 830 830 830 830 829 828
800 799 809 805 815 822 827 805 768 772 772 771 771 770 771 773 777 778 778 780 785 790 794 797 800 801 801 808 815 817 819 820 826 827 825 825 825 824 824 824 825 825 824 825 825 825 826 825 822
778 781 781 799 825 823 816 799 766 765 764 765 769 770 770 773 776 777 779 781 784 789 793 796 798 801 805 809 812 813 815 819 820 819 820 820 818 817 819 820 819 819 820 820 820 821 823 821 820